SCP
0 0 0 -0 0 -0 -0 0 0 0 0 0 0 0 0 0 0 0 0 0 0 0 0 0 0 0 0 0 0 0 0 0 0 0 0 0 0 0 0 0 0 0 0 0 0 0 0 0 0
0 0 0 0 0 -0 0 0 0 0 0 0 0 0 0 0 0 0 0 0 0 0 0 0 0 0 0 0 0 0 0 0 0 0 0 0 0 0 0 0 0 0 0 0 0 0 0 0 0
0 0 0 0 0 0 0 0 0 0 0 0 0 0 0 0 0 0 0 0 0 0 0 0 0 0 0 0 0 0 0 0 0 0 0 0 0 0 0 0 0 0 0 0 0 0 0 0 0
0 0 0 0 0 0 0 0 0 0 0 0 0 0 0 0 0 0 0 0 0 0 0 0 0 0 0 0 0 0 0 0 0 0 0 0 0 0 0 0 0 0 0 0 0 0 0 0 0
0 0 0 0 -0 0 0 0 0 0 0 0 0 0 0 0 0 0 0 0 0 0 0 0 0 0 0 0 0 0 0 0 0 0 0 0 0 0 0 0 0 0 0 0 0 0 0 0 0
0 0 0 0 -0 -0 -0 0 0 0 0 0 0 0 0 0 0 0 0 0 0 0 0 0 0 0 0 0 0 0 0 0 0 0 0 0 0 0 0 0 0 0 0 0 0 0 0 0 0
0 0 0 0 -0 -0 -0 0 0 0 0 0 0 0 0 0 0 0 0 0 0 0 0 0 0 0 0 0 0 0 0 0 0 0 -0 -0 -0 -0 -0 -0 0 0 0 0 0 0 0 0 0
0 0 0 0 0 0 0 0 0 0 0 0 0 0 0 0 0 0 0 0 0 0 0 0 0 0 0 0 0 0 0 0 -0 -0 -0 -0 -0 -0 -0 -0 -0 -0 0 0 0 0 0 0 0
0 0 0 0 0 0 0 0 0 0 0 0 0 0 0 -0 0 0 0 0 0 0 0 0 0 0 0 0 0 0 0 0 -0 -0 -0 0 0 0 -0 -0 -0 -0 0 0 0 0 0 0 0
0 0 0 0 0 0 0 0 0 0 0 0 0 0 -0 -0 -0 0 0 0 0 0 0 0 0 0 0 0 0 0 0 0 0 0 0 0 0 0 0 0 0 0 0 0 0 0 0 0 0
0 0 0 0 0 0 0 0 0 0 0 0 0 0 -0 -0 -0 -0 0 0 -0 0 0 0 0 0 0 0 0 0 0 0 0 0 0 0 0 0 0 0 0 0 0 0 0 0 0 0 0
0 0 0 0 0 0 0 0 0 0 0 -0 0 -0 0 0 -0 0 0 0 0 0 0 0 0 0 0 0 0 0 0 0 0 0 0 0 0 0 0 0 0 0 0 0 0 0 0 0 0
0 0 0 0 0 0 0 0 0 0 0 0 0 0 0 0 -0 0 0 0 0 0 0 0 0 0 0 0 0 0 0 0 0 0 0 0 0 0 0 0 0 0 0 0 0 0 0 0 0
0 0 0 0 0 0 0 0 0 0 -0 -0 -0 0 0 0 0 0 0 0 0 0 0 0 0 0 0 0 0 0 0 0 0 0 0 0 0 0 0 0 0 0 0 0 0 0 0 0 0
0 0 0 0 0 0 0 0 0 0 0 -0 -0 0 0 0 0 0 0 0 0 0 0 0 0 0 0 0 0 0 0 0 0 0 0 0 0 0 0 0 0 0 0 0 0 0 0 0 0
0 0 0 0 0 0 0 0 0 -0 -0 -0 0 -0 0 0 0 0 0 0 0 0 0 0 0 0 0 0 0 0 0 0 0 0 0 0 0 0 0 0 0 0 0 0 0 0 0 0 0
-0 0 0 0 0 0 0 0 0 0 0 -0 0 -0 -0 0 0 0 0 0 0 0 0 0 0 0 0 0 0 0 0 0 0 0 0 0 0 0 0 0 0 0 0 0 0 0 0 0 0
0 0 0 -0 0 0 0 0 0 0 0 0 -0 0 0 -0 -0 0 -0 0 0 0 0 0 0 0 0 0 0 0 0 0 0 0 0 0 0 0 0 0 0 0 0 0 0 0 0 0 0
-0 0 0 0 0 0 0 0 0 -0 -0 -0 -0 -0 0 -0 0 0 0 0 0 0 0 0 0 0 0 0 0 0 0 0 0 0 0 0 0 0 0 0 0 0 0 0 0 0 0 0 0
0 0 0 0 0 0 -0 0 0 -0 -0 0 0 0 -0 -0 0 0 0 0 0 0 0 0 0 0 0 0 0 0 0 0 0 0 0 0 0 0 0 0 0 0 0 0 0 0 0 0 0
0 0 0 0 0 0 -0 0 0 -0 -0 -0 -0 -0 -0 -0 0 0 0 0 0 0 0 0 0 0 0 0 0 0 0 0 0 0 0 0 0 0 0 0 0 0 0 0 0 0 0 0 0
0 0 0 0 0 0 0 0 0 -0 -0 -0 -0 -0 -0 0 0 0 0 0 0 0 0 0 0 0 0 0 0 0 0 0 0 0 0 0 0 0 0 0 0 0 0 0 0 0 0 0 0
0 0 0 0 0 0 0 0 0 -0 0 -0 0 -0 0 0 0 0 0 0 0 0 0 0 0 0 0 0 0 0 0 0 0 0 0 0 0 0 0 0 0 0 0 0 0 0 0 0 0
0 0 0 0 0 0 0 0 0 0 -0 0 0 0 0 0 -0 0 0 0 0 0 0 0 0 0 0 0 0 0 0 0 0 0 0 0 0 0 0 0 0 0 0 0 0 0 0 0 0
0 0 0 0 0 0 0 0 0 0 0 0 0 0 0 0 0 0 0 0 0 0 0 0 0 0 0 0 0 0 0 0 0 0 0 0 0 0 0 0 0 0 0 0 0 0 0 0 0
0 0 0 0 0 0 0 0 -0 0 0 0 0 0 0 -0 -0 0 0 0 0 0 0 0 0 0 0 0 0 0 0 0 0 0 0 0 0 0 0 0 0 0 0 0 0 0 0 0 0
0 0 0 0 0 0 0 0 0 -0 -0 -0 -0 0 0 -0 0 0 0 0 0 0 0 0 0 0 0 -0 -0 0 0 0 0 0 0 0 0 0 0 0 0 0 0 0 0 0 0 0 0
0 0 0 0 0 0 0 -0 -0 -0 -0 -0 -0 -0 0 0 0 0 0 0 0 0 0 0 0 0 0 0 0 -0 -0 0 0 0 0 0 0 0 0 0 0 0 0 0 0 0 0 0 0
0 0 0 0 0 0 0 0 0 0 0 -0 -0 0 0 0 0 0 0 0 0 0 0 0 0 0 0 0 0 -0 -0 0 0 0 0 0 0 0 0 0 0 0 0 0 0 0 0 0 0
0 0 0 0 0 0 0 0 0 0 0 -0 0 0 0 0 0 0 0 0 0 0 0 0 0 0 0 0 0 0 0 0 0 0 0 0 0 0 0 0 0 0 0 0 0 0 0 0 0
Wind_Speed_500mb
6 12 16 8 7 9 3 5 4 4 2 6 25 9 11 5 6 5 23 23 20 19 14 12 16 14 7 7 7 9 12 14 16 16 12 9 8 10 10 12 11 13 12 11 9 8 8 7 5
8 13 9 2 9 7 9 7 2 5 9 31 21 16 6 4 8 15 25 18 21 15 12 14 19 19 12 7 7 8 11 14 14 13 9 6 8 10 12 12 12 12 13 13 12 8 6 7 6
10 11 5 9 7 3 6 8 5 5 18 4 7 10 4 9 7 16 14 19 20 12 8 13 18 18 16 13 11 12 13 13 10 4 4 7 10 12 14 15 15 15 14 13 12 11 10 7 6
13 9 10 8 4 6 8 8 10 16 7 2 12 10 8 7 8 13 16 18 16 8 6 12 18 20 19 17 16 12 12 10 7 8 11 14 17 20 19 20 20 20 19 18 16 14 13 13 10
9 7 8 7 4 8 9 10 37 13 6 9 8 7 12 16 9 12 15 19 16 13 9 11 15 17 19 21 20 16 13 11 10 13 15 15 17 18 19 18 19 20 19 19 18 16 16 15 13
5 5 9 6 10 9 9 16 21 14 11 12 6 15 10 12 9 15 16 20 19 13 7 8 11 13 16 20 22 23 20 18 16 14 13 13 11 12 13 14 15 17 14 13 15 15 15 13 14
7 6 4 4 6 11 6 11 17 16 11 3 17 9 4 23 19 18 20 21 19 15 6 4 8 9 12 17 20 22 23 20 15 13 11 6 7 6 6 7 9 12 14 12 14 11 10 7 9
2 8 2 6 5 11 6 1 10 19 3 3 5 5 6 34 26 25 25 23 22 17 10 6 5 5 6 13 13 16 21 21 15 14 12 6 5 5 4 3 6 7 13 13 11 11 10 5 3
7 7 5 8 8 3 14 9 18 11 8 5 4 10 9 32 31 32 30 30 28 25 19 12 10 8 3 6 7 12 16 19 20 20 19 14 10 11 8 7 10 10 14 16 14 14 10 8 3
6 6 12 9 10 9 21 34 18 9 9 5 6 13 8 26 32 34 32 32 31 29 24 16 17 11 6 1 3 7 10 14 18 19 22 17 16 14 11 11 8 14 15 13 12 11 11 9 6
1 4 5 7 4 43 28 35 20 12 8 14 8 16 19 31 35 37 33 30 21 23 29 20 16 16 10 7 5 3 7 12 13 16 20 18 14 12 13 11 13 16 10 11 11 9 7 9 6
2 5 7 8 26 31 23 35 4 18 15 26 20 23 26 35 35 33 37 31 30 35 30 25 19 15 10 15 9 7 7 8 8 10 16 22 14 7 6 9 18 12 10 11 14 13 7 6 5
2 1 10 14 10 23 32 16 8 12 12 9 17 32 32 34 29 36 38 38 41 44 35 29 23 18 14 14 16 12 6 7 5 7 12 18 15 6 7 10 16 15 12 13 21 12 5 1 2
9 14 16 15 13 5 5 7 6 6 6 11 21 34 33 39 41 43 50 51 51 50 41 33 25 20 16 14 16 14 10 6 2 3 5 10 16 11 11 14 16 15 13 19 26 7 3 3 5
11 12 8 5 6 4 9 6 6 7 13 7 16 23 26 27 37 47 52 63 60 56 46 41 30 25 16 13 17 18 12 8 5 4 6 5 9 11 10 15 16 16 17 20 23 8 5 4 5
6 9 6 4 6 3 4 12 10 16 16 6 1 1 12 17 13 17 32 55 64 62 55 45 36 28 17 11 19 17 15 11 9 7 8 9 7 12 11 14 17 15 18 17 16 3 2 2 3
14 2 3 3 11 3 2 6 10 4 15 18 20 14 13 12 15 31 41 33 42 54 55 50 41 30 18 14 20 18 18 16 14 13 11 10 10 11 11 12 16 12 16 11 12 2 4 3 4
3 4 2 5 14 14 9 2 7 12 14 14 12 12 17 25 30 40 39 36 22 36 49 49 41 30 21 18 20 21 21 20 20 17 16 15 15 13 13 13 12 15 11 10 8 8 4 7 7
2 4 6 1 7 4 7 6 7 27 7 10 19 34 26 33 19 28 33 38 31 22 41 49 43 33 25 23 21 27 25 22 20 20 18 18 15 14 14 13 10 11 6 5 6 11 10 9 8
9 9 4 2 5 3 8 7 11 11 11 9 21 23 28 30 10 16 27 31 29 19 33 46 41 35 30 25 21 25 26 28 24 23 20 18 20 16 12 9 6 7 6 5 3 5 8 11 12
4 14 10 9 3 6 10 11 11 10 13 15 15 8 16 22 11 10 15 21 30 19 27 45 46 40 36 28 23 28 32 31 28 22 18 16 13 14 10 6 5 7 8 6 2 2 3 6 8
5 15 16 19 7 3 7 7 10 12 16 13 11 8 12 25 11 8 9 12 19 16 19 36 44 42 39 32 28 32 35 34 29 25 20 17 16 17 14 12 9 9 9 6 5 4 5 7 8
5 9 16 12 8 7 2 6 15 9 14 10 6 9 18 22 15 12 14 15 12 13 18 24 37 41 39 37 34 37 38 33 30 25 23 21 18 19 20 18 15 13 10 9 9 9 8 9 13
13 15 18 11 5 5 6 5 10 7 9 13 4 19 28 29 26 18 20 23 15 11 12 24 32 41 43 41 38 41 40 37 35 30 29 24 21 21 20 24 22 15 9 9 8 7 9 12 17
15 12 6 6 6 9 9 2 16 12 12 7 24 43 44 43 38 34 28 28 22 12 9 25 31 43 48 44 39 39 43 41 36 31 28 28 25 25 20 22 22 19 12 10 12 16 19 23 28
10 13 9 8 7 7 7 7 10 8 23 26 29 35 47 52 47 45 45 41 39 29 14 20 37 45 48 43 32 35 39 42 41 34 32 32 28 23 21 17 16 18 16 15 19 24 28 30 33
7 3 10 14 6 5 6 12 18 12 15 24 36 38 42 45 47 47 51 52 52 50 37 25 34 39 39 51 47 32 33 39 42 38 36 33 32 26 23 21 17 14 17 18 30 30 29 33 36
4 9 7 7 8 5 8 10 10 10 13 16 24 33 42 48 47 40 55 60 49 49 38 34 43 42 28 22 41 39 36 35 38 38 38 41 32 26 25 21 19 20 24 23 34 30 31 35 34
5 4 12 9 7 10 3 11 12 8 5 11 28 37 39 41 44 51 49 46 45 36 39 44 51 59 42 32 28 44 37 36 35 37 38 37 37 28 26 24 24 25 27 29 29 34 33 33 32
3 4 7 9 7 3 6 11 4 8 6 15 31 31 27 24 33 41 43 43 41 42 42 51 57 55 34 40 36 34 38 32 33 29 27 35 36 32 27 26 26 27 31 33 33 32 31 34 40
Wind_Direction_500mb
37 23 342 321 48 63 359 335 304 312 133 168 162 151 172 98 149 212 145 154 162 158 120 61 43 17 352 346 335 330 319 318 322 325 330 342 352 360 10 24 32 24 21 15 15 6 2 355 334
352 352 354 19 75 56 294 262 277 253 128 107 97 96 70 90 97 143 152 162 161 141 97 56 43 34 39 18 352 341 334 328 321 317 321 346 9 24 39 35 23 16 11 9 7 9 356 332 324
11 358 47 88 97 134 245 272 188 105 145 37 107 72 90 119 108 154 147 159 153 139 83 62 49 46 47 37 15 358 343 333 333 2 73 64 61 64 53 41 33 32 26 23 22 22 17 12 332
1 354 61 75 345 244 208 274 158 143 226 59 124 73 76 56 97 163 153 161 156 153 121 76 59 54 53 41 23 7 353 356 27 60 63 72 87 71 65 59 58 51 43 39 36 39 48 42 25
343 10 38 39 295 264 249 253 162 173 195 168 159 133 121 131 124 147 138 172 175 178 141 88 73 67 56 41 38 34 38 45 62 81 80 85 91 75 64 61 57 53 47 40 36 43 45 35 15
35 47 41 357 311 289 290 192 181 184 195 177 124 124 138 173 157 148 164 184 185 190 157 112 93 78 66 54 53 51 52 56 63 68 70 79 104 91 72 59 56 51 35 25 26 32 30 35 16
119 83 215 244 315 343 296 177 172 184 186 241 143 119 159 172 177 168 175 192 200 195 194 148 133 103 72 55 54 52 60 57 54 43 42 79 102 87 74 44 43 45 33 18 15 16 348 354 8
167 95 107 257 196 255 240 186 352 36 351 101 128 184 186 180 184 179 186 197 204 206 210 221 188 152 94 58 54 50 54 57 50 35 28 40 11 347 317 287 358 21 14 16 16 353 354 302 300
175 75 221 251 169 244 106 53 43 21 127 336 233 302 312 185 189 187 195 203 206 212 219 225 216 198 143 65 43 38 36 53 52 41 33 11 339 340 358 339 341 353 358 359 357 5 13 10 233
145 124 218 209 199 122 96 100 91 39 334 289 243 260 201 192 195 199 207 215 217 223 224 224 218 212 204 244 344 31 20 39 51 37 23 356 332 337 350 345 344 353 344 341 351 353 1 17 284
357 315 273 350 39 134 122 114 157 161 255 267 254 199 196 201 203 212 221 232 254 243 226 228 227 221 218 251 273 336 9 23 41 31 13 359 340 336 351 358 0 330 334 347 342 343 356 28 40
330 300 234 174 147 141 161 161 71 174 216 282 246 226 207 212 216 225 230 238 242 240 234 230 224 215 227 224 247 260 327 0 33 35 22 11 355 351 349 344 3 21 4 344 335 333 317 7 43
177 266 140 99 115 143 139 56 145 169 220 238 195 207 218 227 239 248 249 254 248 243 236 232 231 222 220 236 245 252 284 341 3 24 15 21 31 35 4 351 8 7 358 338 337 320 311 348 149
164 112 123 109 21 211 44 32 114 179 313 218 201 205 222 235 240 249 248 254 252 248 239 233 234 218 224 243 249 252 258 287 307 316 337 8 34 36 17 11 13 9 7 349 354 21 57 20 168
130 95 114 223 166 131 26 34 309 7 3 232 201 216 242 269 264 263 268 261 254 250 243 232 226 212 219 242 241 245 245 274 273 282 286 326 6 6 358 3 1 12 6 356 354 27 59 9 217
119 76 151 255 357 39 60 294 301 6 355 2 8 230 267 269 278 295 315 276 258 250 242 228 222 214 211 243 238 249 247 266 268 266 261 271 302 339 328 346 347 347 355 354 1 60 59 20 283
9 228 258 80 61 176 167 265 311 0 16 329 324 337 351 15 337 328 341 318 262 253 234 221 218 212 212 234 237 249 244 253 254 246 236 257 283 307 303 327 340 337 345 357 10 100 51 41 324
200 178 317 27 334 41 43 175 298 359 327 314 346 332 353 6 3 3 4 5 333 254 230 218 214 209 215 236 239 252 233 241 244 235 231 248 269 286 304 320 335 339 340 10 31 21 22 34 21
349 89 91 28 338 9 357 291 315 329 328 315 334 351 349 351 1 12 26 19 11 260 226 215 216 214 228 236 265 248 238 243 241 235 240 254 269 276 308 320 316 333 353 5 35 36 49 38 71
108 109 59 47 2 36 343 309 302 286 264 291 324 336 341 345 20 33 35 11 2 309 241 222 220 223 239 243 267 242 239 236 240 242 249 259 264 272 300 319 297 317 339 356 7 37 54 45 42
175 147 177 186 43 36 355 315 320 285 305 294 305 316 9 353 8 31 24 13 2 318 258 233 228 231 243 249 254 238 231 233 237 242 250 261 252 258 262 286 305 332 327 335 305 317 47 53 25
238 184 147 131 87 209 59 285 308 310 320 307 342 248 342 4 300 321 333 353 1 330 259 238 230 239 246 255 262 251 238 238 239 242 239 231 232 223 232 244 279 300 305 294 267 283 315 335 347
273 139 128 96 96 95 311 84 273 340 321 300 351 343 336 343 318 275 286 302 343 325 269 251 241 242 247 258 265 254 244 244 234 235 242 232 230 230 238 249 266 292 298 289 281 285 308 320 325
148 70 42 61 73 34 277 127 288 280 246 312 319 349 342 338 331 286 275 286 305 314 295 256 255 253 252 257 263 250 244 246 247 241 242 239 245 236 247 245 248 255 271 273 264 277 302 305 311
80 70 42 344 3 229 324 17 242 264 289 252 297 310 317 318 317 296 287 287 290 301 307 270 286 264 256 258 256 240 247 246 251 249 247 243 252 253 257 248 237 239 256 259 262 281 291 303 303
202 155 155 226 183 260 352 254 263 250 299 308 312 306 305 307 308 295 300 302 287 277 269 271 296 289 265 264 248 246 250 251 255 258 258 256 252 255 267 258 249 251 247 242 261 281 282 290 296
169 102 137 106 25 68 265 288 306 327 319 316 314 315 311 317 315 308 304 309 289 273 252 250 298 286 280 295 281 269 261 255 257 261 260 253 251 258 256 251 252 240 232 266 280 279 282 288 294
116 142 73 25 136 216 281 291 241 304 322 335 338 337 328 323 320 317 319 322 317 282 276 268 268 281 277 305 284 275 276 276 260 256 255 258 256 250 248 240 244 235 249 280 277 283 285 291 296
8 39 52 113 118 159 178 263 219 219 327 324 324 328 323 321 324 331 333 331 324 307 295 286 278 280 280 315 254 261 255 271 273 258 262 267 255 247 241 245 250 239 271 279 279 283 290 292 289
110 134 140 119 213 152 150 273 330 222 263 331 336 348 6 24 25 19 12 4 351 338 322 306 297 284 297 295 263 247 257 262 289 256 271 267 250 252 254 250 253 253 263 267 279 281 288 289 295
Wind_Speed_850mb
6 12 16 8 7 9 3 5 4 4 2 6 25 9 11 5 6 5 23 23 20 19 14 12 16 14 7 7 7 9 12 14 16 16 12 9 8 10 10 12 11 13 12 11 9 8 8 7 5
8 13 9 2 9 7 9 7 2 5 9 31 21 16 6 4 8 15 25 18 21 15 12 14 19 19 12 7 7 8 11 14 14 13 9 6 8 10 12 12 12 12 13 13 12 8 6 7 6
10 11 5 9 7 3 6 8 5 5 18 4 7 10 4 9 7 16 14 19 20 12 8 13 18 18 16 13 11 12 13 13 10 4 4 7 10 12 14 15 15 15 14 13 12 11 10 7 6
13 9 10 8 4 6 8 8 10 16 7 2 12 10 8 7 8 13 16 18 16 8 6 12 18 20 19 17 16 12 12 10 7 8 11 14 17 20 19 20 20 20 19 18 16 14 13 13 10
9 7 8 7 4 8 9 10 37 13 6 9 8 7 12 16 9 12 15 19 16 13 9 11 15 17 19 21 20 16 13 11 10 13 15 15 17 18 19 18 19 20 19 19 18 16 16 15 13
5 5 9 6 10 9 9 16 21 14 11 12 6 15 10 12 9 15 16 20 19 13 7 8 11 13 16 20 22 23 20 18 16 14 13 13 11 12 13 14 15 17 14 13 15 15 15 13 14
7 6 4 4 6 11 6 11 17 16 11 3 17 9 4 23 19 18 20 21 19 15 6 4 8 9 12 17 20 22 23 20 15 13 11 6 7 6 6 7 9 12 14 12 14 11 10 7 9
2 8 2 6 5 11 6 1 10 19 3 3 5 5 6 34 26 25 25 23 22 17 10 6 5 5 6 13 13 16 21 21 15 14 12 6 5 5 4 3 6 7 13 13 11 11 10 5 3
7 7 5 8 8 3 14 9 18 11 8 5 4 10 9 32 31 32 30 30 28 25 19 12 10 8 3 6 7 12 16 19 20 20 19 14 10 11 8 7 10 10 14 16 14 14 10 8 3
6 6 12 9 10 9 21 34 18 9 9 5 6 13 8 26 32 34 32 32 31 29 24 16 17 11 6 1 3 7 10 14 18 19 22 17 16 14 11 11 8 14 15 13 12 11 11 9 6
1 4 5 7 4 43 28 35 20 12 8 14 8 16 19 31 35 37 33 30 21 23 29 20 16 16 10 7 5 3 7 12 13 16 20 18 14 12 13 11 13 16 10 11 11 9 7 9 6
2 5 7 8 26 31 23 35 4 18 15 26 20 23 26 35 35 33 37 31 30 35 30 25 19 15 10 15 9 7 7 8 8 10 16 22 14 7 6 9 18 12 10 11 14 13 7 6 5
2 1 10 14 10 23 32 16 8 12 12 9 17 32 32 34 29 36 38 38 41 44 35 29 23 18 14 14 16 12 6 7 5 7 12 18 15 6 7 10 16 15 12 13 21 12 5 1 2
9 14 16 15 13 5 5 7 6 6 6 11 21 34 33 39 41 43 50 51 51 50 41 33 25 20 16 14 16 14 10 6 2 3 5 10 16 11 11 14 16 15 13 19 26 7 3 3 5
11 12 8 5 6 4 9 6 6 7 13 7 16 23 26 27 37 47 52 63 60 56 46 41 30 25 16 13 17 18 12 8 5 4 6 5 9 11 10 15 16 16 17 20 23 8 5 4 5
6 9 6 4 6 3 4 12 10 16 16 6 1 1 12 17 13 17 32 55 64 62 55 45 36 28 17 11 19 17 15 11 9 7 8 9 7 12 11 14 17 15 18 17 16 3 2 2 3
14 2 3 3 11 3 2 6 10 4 15 18 20 14 13 12 15 31 41 33 42 54 55 50 41 30 18 14 20 18 18 16 14 13 11 10 10 11 11 12 16 12 16 11 12 2 4 3 4
3 4 2 5 14 14 9 2 7 12 14 14 12 12 17 25 30 40 39 36 22 36 49 49 41 30 21 18 20 21 21 20 20 17 16 15 15 13 13 13 12 15 11 10 8 8 4 7 7
2 4 6 1 7 4 7 6 7 27 7 10 19 34 26 33 19 28 33 38 31 22 41 49 43 33 25 23 21 27 25 22 20 20 18 18 15 14 14 13 10 11 6 5 6 11 10 9 8
9 9 4 2 5 3 8 7 11 11 11 9 21 23 28 30 10 16 27 31 29 19 33 46 41 35 30 25 21 25 26 28 24 23 20 18 20 16 12 9 6 7 6 5 3 5 8 11 12
4 14 10 9 3 6 10 11 11 10 13 15 15 8 16 22 11 10 15 21 30 19 27 45 46 40 36 28 23 28 32 31 28 22 18 16 13 14 10 6 5 7 8 6 2 2 3 6 8
5 15 16 19 7 3 7 7 10 12 16 13 11 8 12 25 11 8 9 12 19 16 19 36 44 42 39 32 28 32 35 34 29 25 20 17 16 17 14 12 9 9 9 6 5 4 5 7 8
5 9 16 12 8 7 2 6 15 9 14 10 6 9 18 22 15 12 14 15 12 13 18 24 37 41 39 37 34 37 38 33 30 25 23 21 18 19 20 18 15 13 10 9 9 9 8 9 13
13 15 18 11 5 5 6 5 10 7 9 13 4 19 28 29 26 18 20 23 15 11 12 24 32 41 43 41 38 41 40 37 35 30 29 24 21 21 20 24 22 15 9 9 8 7 9 12 17
15 12 6 6 6 9 9 2 16 12 12 7 24 43 44 43 38 34 28 28 22 12 9 25 31 43 48 44 39 39 43 41 36 31 28 28 25 25 20 22 22 19 12 10 12 16 19 23 28
10 13 9 8 7 7 7 7 10 8 23 26 29 35 47 52 47 45 45 41 39 29 14 20 37 45 48 43 32 35 39 42 41 34 32 32 28 23 21 17 16 18 16 15 19 24 28 30 33
7 3 10 14 6 5 6 12 18 12 15 24 36 38 42 45 47 47 51 52 52 50 37 25 34 39 39 51 47 32 33 39 42 38 36 33 32 26 23 21 17 14 17 18 30 30 29 33 36
4 9 7 7 8 5 8 10 10 10 13 16 24 33 42 48 47 40 55 60 49 49 38 34 43 42 28 22 41 39 36 35 38 38 38 41 32 26 25 21 19 20 24 23 34 30 31 35 34
5 4 12 9 7 10 3 11 12 8 5 11 28 37 39 41 44 51 49 46 45 36 39 44 51 59 42 32 28 44 37 36 35 37 38 37 37 28 26 24 24 25 27 29 29 34 33 33 32
3 4 7 9 7 3 6 11 4 8 6 15 31 31 27 24 33 41 43 43 41 42 42 51 57 55 34 40 36 34 38 32 33 29 27 35 36 32 27 26 26 27 31 33 33 32 31 34 40
Wind_Direction_850mb
37 23 342 321 48 63 359 335 304 312 133 168 162 151 172 98 149 212 145 154 162 158 120 61 43 17 352 346 335 330 319 318 322 325 330 342 352 360 10 24 32 24 21 15 15 6 2 355 334
352 352 354 19 75 56 294 262 277 253 128 107 97 96 70 90 97 143 152 162 161 141 97 56 43 34 39 18 352 341 334 328 321 317 321 346 9 24 39 35 23 16 11 9 7 9 356 332 324
11 358 47 88 97 134 245 272 188 105 145 37 107 72 90 119 108 154 147 159 153 139 83 62 49 46 47 37 15 358 343 333 333 2 73 64 61 64 53 41 33 32 26 23 22 22 17 12 332
1 354 61 75 345 244 208 274 158 143 226 59 124 73 76 56 97 163 153 161 156 153 121 76 59 54 53 41 23 7 353 356 27 60 63 72 87 71 65 59 58 51 43 39 36 39 48 42 25
343 10 38 39 295 264 249 253 162 173 195 168 159 133 121 131 124 147 138 172 175 178 141 88 73 67 56 41 38 34 38 45 62 81 80 85 91 75 64 61 57 53 47 40 36 43 45 35 15
35 47 41 357 311 289 290 192 181 184 195 177 124 124 138 173 157 148 164 184 185 190 157 112 93 78 66 54 53 51 52 56 63 68 70 79 104 91 72 59 56 51 35 25 26 32 30 35 16
119 83 215 244 315 343 296 177 172 184 186 241 143 119 159 172 177 168 175 192 200 195 194 148 133 103 72 55 54 52 60 57 54 43 42 79 102 87 74 44 43 45 33 18 15 16 348 354 8
167 95 107 257 196 255 240 186 352 36 351 101 128 184 186 180 184 179 186 197 204 206 210 221 188 152 94 58 54 50 54 57 50 35 28 40 11 347 317 287 358 21 14 16 16 353 354 302 300
175 75 221 251 169 244 106 53 43 21 127 336 233 302 312 185 189 187 195 203 206 212 219 225 216 198 143 65 43 38 36 53 52 41 33 11 339 340 358 339 341 353 358 359 357 5 13 10 233
145 124 218 209 199 122 96 100 91 39 334 289 243 260 201 192 195 199 207 215 217 223 224 224 218 212 204 244 344 31 20 39 51 37 23 356 332 337 350 345 344 353 344 341 351 353 1 17 284
357 315 273 350 39 134 122 114 157 161 255 267 254 199 196 201 203 212 221 232 254 243 226 228 227 221 218 251 273 336 9 23 41 31 13 359 340 336 351 358 0 330 334 347 342 343 356 28 40
330 300 234 174 147 141 161 161 71 174 216 282 246 226 207 212 216 225 230 238 242 240 234 230 224 215 227 224 247 260 327 0 33 35 22 11 355 351 349 344 3 21 4 344 335 333 317 7 43
177 266 140 99 115 143 139 56 145 169 220 238 195 207 218 227 239 248 249 254 248 243 236 232 231 222 220 236 245 252 284 341 3 24 15 21 31 35 4 351 8 7 358 338 337 320 311 348 149
164 112 123 109 21 211 44 32 114 179 313 218 201 205 222 235 240 249 248 254 252 248 239 233 234 218 224 243 249 252 258 287 307 316 337 8 34 36 17 11 13 9 7 349 354 21 57 20 168
130 95 114 223 166 131 26 34 309 7 3 232 201 216 242 269 264 263 268 261 254 250 243 232 226 212 219 242 241 245 245 274 273 282 286 326 6 6 358 3 1 12 6 356 354 27 59 9 217
119 76 151 255 357 39 60 294 301 6 355 2 8 230 267 269 278 295 315 276 258 250 242 228 222 214 211 243 238 249 247 266 268 266 261 271 302 339 328 346 347 347 355 354 1 60 59 20 283
9 228 258 80 61 176 167 265 311 0 16 329 324 337 351 15 337 328 341 318 262 253 234 221 218 212 212 234 237 249 244 253 254 246 236 257 283 307 303 327 340 337 345 357 10 100 51 41 324
200 178 317 27 334 41 43 175 298 359 327 314 346 332 353 6 3 3 4 5 333 254 230 218 214 209 215 236 239 252 233 241 244 235 231 248 269 286 304 320 335 339 340 10 31 21 22 34 21
349 89 91 28 338 9 357 291 315 329 328 315 334 351 349 351 1 12 26 19 11 260 226 215 216 214 228 236 265 248 238 243 241 235 240 254 269 276 308 320 316 333 353 5 35 36 49 38 71
108 109 59 47 2 36 343 309 302 286 264 291 324 336 341 345 20 33 35 11 2 309 241 222 220 223 239 243 267 242 239 236 240 242 249 259 264 272 300 319 297 317 339 356 7 37 54 45 42
175 147 177 186 43 36 355 315 320 285 305 294 305 316 9 353 8 31 24 13 2 318 258 233 228 231 243 249 254 238 231 233 237 242 250 261 252 258 262 286 305 332 327 335 305 317 47 53 25
238 184 147 131 87 209 59 285 308 310 320 307 342 248 342 4 300 321 333 353 1 330 259 238 230 239 246 255 262 251 238 238 239 242 239 231 232 223 232 244 279 300 305 294 267 283 315 335 347
273 139 128 96 96 95 311 84 273 340 321 300 351 343 336 343 318 275 286 302 343 325 269 251 241 242 247 258 265 254 244 244 234 235 242 232 230 230 238 249 266 292 298 289 281 285 308 320 325
148 70 42 61 73 34 277 127 288 280 246 312 319 349 342 338 331 286 275 286 305 314 295 256 255 253 252 257 263 250 244 246 247 241 242 239 245 236 247 245 248 255 271 273 264 277 302 305 311
80 70 42 344 3 229 324 17 242 264 289 252 297 310 317 318 317 296 287 287 290 301 307 270 286 264 256 258 256 240 247 246 251 249 247 243 252 253 257 248 237 239 256 259 262 281 291 303 303
202 155 155 226 183 260 352 254 263 250 299 308 312 306 305 307 308 295 300 302 287 277 269 271 296 289 265 264 248 246 250 251 255 258 258 256 252 255 267 258 249 251 247 242 261 281 282 290 296
169 102 137 106 25 68 265 288 306 327 319 316 314 315 311 317 315 308 304 309 289 273 252 250 298 286 280 295 281 269 261 255 257 261 260 253 251 258 256 251 252 240 232 266 280 279 282 288 294
116 142 73 25 136 216 281 291 241 304 322 335 338 337 328 323 320 317 319 322 317 282 276 268 268 281 277 305 284 275 276 276 260 256 255 258 256 250 248 240 244 235 249 280 277 283 285 291 296
8 39 52 113 118 159 178 263 219 219 327 324 324 328 323 321 324 331 333 331 324 307 295 286 278 280 280 315 254 261 255 271 273 258 262 267 255 247 241 245 250 239 271 279 279 283 290 292 289
110 134 140 119 213 152 150 273 330 222 263 331 336 348 6 24 25 19 12 4 351 338 322 306 297 284 297 295 263 247 257 262 289 256 271 267 250 252 254 250 253 253 263 267 279 281 288 289 295